Regional Weather Roundup
Issued by NWS Sterling, VA

Home | Current Version | Previous Version | Text Only | Print | Product List | Glossary Off
Versions: 1 2 3 4 5 6 7 8 9 10 11 12 13 14 15 16 17 18 19 20 21 22 23 24 25 26 27 28 29 30 31 32 33 34 35 36 37 38 39 40 41 42 43 44 45 46 47 48 49 50

584
ASUS41 KLWX 171911
RWRLWX

REGIONAL WEATHER ROUNDUP
NATIONAL WEATHER SERVICE BALTIMORE MD/WASHINGTON DC
300 PM EDT TUE OCT 17 2017

Note: "FAIR" indicates few or no clouds below 12,000 feet
with no significant weather and/or obstructions to visibility.
 TC=TEMPERATURE CELSIUS

 * =Non NWS site. Station does not report precipitation (e.g. rain,
    snow, etc.), thunder, or fog.

DCZ001-MDZ009-015-VAZ040>042-051-053>054-172000-
WASHINGTON METRO

CITY           SKY/WX    TMP DP  RH WIND       PRES   REMARKS
WASHINGTON NAT MOSUNNY   63  33  32 CALM      30.31F
DULLES         SUNNY     62  33  33 NW6       30.31F
ANDREWS AFB    SUNNY     60  30  32 CALM      30.30F
FT BELVOIR     SUNNY     63  30  29 W3        30.31F
QUANTICO       SUNNY     61  34  36 SE5       30.33F
COLLEGE PARK*  SUNNY     60  32  34 N3        30.31F
LEESBURG*      SUNNY     61  34  36 N5        30.31F
MANASSAS*      SUNNY     62  30  29 VRB5      30.32F
GAITHERSBURG*  SUNNY     61  30  31 CALM      30.31F HAZE

$$

MDZ006>007-011-014-172000-
BALTIMORE METRO

CITY           SKY/WX    TMP DP  RH WIND       PRES   REMARKS
BWI AIRPORT    MOSUNNY   62  32  32 N6        30.30F
MD SCIENCE CTR   N/A     62  33  33 MISG      30.30F
MARTIN STATE   SUNNY     61  43  51 SE8       30.32F
ANNAPOLIS      SUNNY     61  34  36 CALM      30.31F
FORT MEADE*    SUNNY     61  34  36 N3        30.33F

$$

MDZ012-015-019>023-172000-
MARYLAND EASTERN SHORE

CITY           SKY/WX    TMP DP  RH WIND       PRES   REMARKS
OCEAN CITY     SUNNY     57  40  52 NE8       30.32S
SALISBURY      SUNNY     59  36  42 N6        30.30F
CAMBRIDGE*     SUNNY     59  36  41 W5        30.31F
EASTON*        SUNNY     61  32  33 N5        30.34F

$$

MDZ017>025-172000-
SOUTHERN MARYLAND

CITY           SKY/WX    TMP DP  RH WIND       PRES   REMARKS
PATUXENT RIVER MOSUNNY   59  31  34 N8G18     30.31F
ST INIGOES     SUNNY     60  42  51 NE8       30.31F
LEONARDTOWN*   NOT AVBL

$$

MDZ003>005-172000-
NORTH CENTRAL MARYLAND

CITY           SKY/WX    TMP DP  RH WIND       PRES   REMARKS
FREDERICK*     SUNNY     63  28  27 SW7       30.33F
HAGERSTOWN APT SUNNY     60  33  36 SW5       30.29F
WESTMINSTER*   SUNNY     57  34  41 CALM      30.29F

$$

MDZ501>502-172000-
WESTERN MARYLAND

CITY           SKY/WX    TMP DP  RH WIND       PRES   REMARKS
OAKLAND*       SUNNY     52  32  46 NW5       30.27F
CUMBERLAND*    SUNNY     63  36  36 SE5       30.32F

$$

VAZ025>031-172000-
SHENANDOAH VALLEY

CITY           SKY/WX    TMP DP  RH WIND       PRES   REMARKS
WINCHESTER*    SUNNY     59  32  36 CALM      30.30F
FRONT ROYAL*   SUNNY     61  32  33 MISG      30.29F
LURAY*         SUNNY     61  32  33 S3        30.30F
NEW MARKET*    SUNNY     62  30  30 SE3       30.29F
STAUNTON*      SUNNY     59  31  34 N5        30.33F
WAYNESBORO*    SUNNY     58  30  34 NW6       30.31F

$$

WVZ021-048>050-054>055-172000-
EASTERN WEST VIRGINIA PANHANDLE

CITY           SKY/WX    TMP DP  RH WIND       PRES   REMARKS
MARTINSBURG    SUNNY     63  32  31 N3        30.29F
PETERSBURG*    SUNNY     62  37  38 E3        30.28F

$$

VAZ036>039-050-172000-
CENTRAL FOOTHILLS

CITY           SKY/WX    TMP DP  RH WIND       PRES   REMARKS
CHARLOTTESVILL SUNNY     63  33  32 E7        30.31F
CULPEPER*      SUNNY     62  27  26 SW3       30.32F
ORANGE*        SUNNY     61  32  33 CALM      30.31F
GORDONSVILLE*  SUNNY     62  33  33 NE7       30.31F
WARRENTON*     SUNNY     65  23  20 CALM      30.31F

$$

VAZ055>057-172000-
NORTH AND CENTRAL PIEDMONT

CITY           SKY/WX    TMP DP  RH WIND       PRES   REMARKS
FREDERICKSBRG* SUNNY     62  33  33 N3        30.31F
STAFFORD*      SUNNY     60  29  30 N6        30.36F

$$

NCZ024-NYZ072-PAZ021-071-VAZ022-071-172000-
OTHER REGIONAL OBSERVATIONS

CITY           SKY/WX    TMP DP  RH WIND       PRES   REMARKS
NEW YORK CITY  SUNNY     58  29  33 VRB3      30.30F
PHILADELPHIA   SUNNY     60  32  34 N6        30.30F
PITTSBURGH     MOSUNNY   62  38  40 SW9       30.28F
ROANOKE        SUNNY     61  34  36 VRB3      30.33F
RICHMOND       MOSUNNY   63  33  32 VRB7      30.31F
RALEIGH        MOSUNNY   64  36  35 VRB5      30.31F

$$

ANZ530>537-172000-
MARINE OBSERVATIONS

STATION/POSITION TIME  TEMP    WIND        PRES
                       AIR SEA DIR/SP/G
                 (UTC) (F)     (DEG/KT/KT) (MB)
THOMAS PT LIGHT  1900   55 67   70/  5/  7   N/A
BALT KEY BRIDGE  1836   58     290/  3/  4 1026.4F
COVE POINT       1836   54      30/  8/ 14 1027.4F
LEWISETTA        1836   56 63   70/  4/  5 1026.7F
SOLOMONS ISLAND  1836   56 70   20/  4/  7 1026.3F
PINEY POINT      1836          350/  3/  4   N/A

$$





USA.gov is the U.S. government's official web portal to all federal, state and local government web resources and services.